SB KEPS @ AMSAT $ORB11048.N 2Line Orbital Elements 11048.AMSAT
HR AMSAT ORBITAL ELEMENTS FOR AMATEUR SATELLITES IN NASA FORMAT FROM WA5QGD FORT WORTH,TX February 17, 2011 Send Subscribe/unsubscribe to KEPS at http://www.amsat.org/mailman/listinfo/keps BID: ORB11048.N
DECODE 2-LINE ELSETS WITH THE FOLLOWING KEY: 1 AAAAAU 00 0 0 BBBBB.BBBBBBBB .CCCCCCCC 00000-0 00000-0 0 DDDZ 2 AAAAA EEE.EEEE FFF.FFFF GGGGGGG HHH.HHHH III.IIII JJ.JJJJJJJJKKKKKZ KEY: A-CATALOGNUM B-EPOCHTIME C-DECAY D-ELSETNUM E-INCLINATION F-RAAN G-ECCENTRICITY H-ARGPERIGEE I-MNANOM J-MNMOTION K-ORBITNUM Z-CHECKSUM
TO ALL RADIO AMATEURS BT
AO-07 1 07530U 74089B 11047.56918477 -.00000027 00000-0 10000-3 0 00088 2 07530 101.3959 058.8660 0011845 155.0573 205.1071 12.53581114659077 FO-29 1 24278U 96046B 11047.95817347 .00000138 00000-0 17722-3 0 05243 2 24278 098.5259 208.3969 0350168 208.8162 149.3234 13.52957748716203 SO-33 1 25509U 98061B 11048.79142469 .00000280 00000-0 41708-4 0 9063 2 25509 031.4335 199.5819 0354226 277.3867 078.6655 14.28366173643197 RS-22 1 27939U 03042A 11048.64758831 .00000216 00000-0 50347-4 0 9997 2 27939 097.8615 268.2547 0013882 007.8837 352.2577 14.63511581394852 VO-52 1 28650U 05017B 11048.65595022 .00000493 00000-0 68351-4 0 7218 2 28650 097.6598 097.0531 0026651 190.8797 169.1805 14.81911985313041 SO-67 1 35870U 09049F 11048.69450748 .00001415 00000-0 66172-4 0 5715 2 35870 097.2984 095.8859 0002351 349.3614 159.2341 15.21348184 78770 HO-68 1 36122U 09072B 11048.75422845 -.00000045 00000-0 00000 0 0 1220 2 36122 100.4326 111.3061 0007982 134.7636 225.4128 13.16283998 56523 UO-11 1 14781U 84021B 11047.65537482 .00000404 00000-0 60548-4 0 04731 2 14781 098.0216 104.6564 0009201 162.2149 197.9406 14.79890826447962 AO-16 1 20439U 90005D 11048.74206784 .00000051 00000-0 34551-4 0 1208 2 20439 098.3681 002.4459 0011028 153.3191 206.8561 14.31895786100522 LO-19 1 20442U 90005G 11047.72250623 .00000006 00000-0 17529-4 0 00294 2 20442 098.3300 006.2837 0012273 150.6895 209.4977 14.32122968100559 AO-27 1 22825U 93061C 11047.88620212 -.00000089 00000-0 -17863-4 0 07525 2 22825 098.5161 354.9032 0007620 271.2126 088.8186 14.29326246907007 IO-26 1 22826U 93061D 11048.81746031 .00000039 00000-0 32140-4 0 4893 2 22826 098.5122 356.3280 0008112 262.8581 097.1686 14.29586368907252 GO-32 1 25397U 98043D 11047.69197506 -.00000028 00000-0 55174-5 0 04089 2 25397 098.3209 046.7373 0000252 287.3330 072.7821 14.23196144654821 NO-44 1 26931U 01043C 11047.92308470 -.00000172 00000-0 -34863-4 0 06846 2 26931 067.0535 293.4100 0007034 271.7388 088.2901 14.29632569489734 SO-50 1 27607U 02058C 11048.33386829 .00000230 00000-0 57794-4 0 3932 2 27607 064.5611 331.8411 0059018 349.2692 010.7156 14.71646085438452 CO-55 1 27844U 03031E 11047.54239525 -.00000676 00000-0 -29307-3 0 00480 2 27844 098.7083 057.9922 0009710 182.9252 177.1880 14.20766987395786 CO-57 1 27848U 03031J 11047.53773442 .00000076 00000-0 55814-4 0 9938 2 27848 098.7144 057.1377 0009666 186.5540 173.5505 14.20554200395736 AO-51 1 28375U 04025K 11047.47785605 .00000034 00000-0 22586-4 0 08983 2 28375 098.0843 032.3546 0084944 075.7919 285.2698 14.40724001348681 CP3 1 31129U 07012N 11047.52169249 .00000243 00000-0 66368-4 0 08000 2 31129 097.9131 078.6497 0101909 195.1213 164.6942 14.52376078203326 CO-65 1 32785U 08021C 11047.62074008 .00000824 00000-0 11084-3 0 09199 2 32785 097.8644 113.7532 0014413 205.4734 154.5808 14.81829891151688 KKS-1 1 33493U 09002B 11048.68453156 .00000791 00000-0 10808-3 0 3198 2 33493 098.1081 175.7116 0020882 069.4559 290.8903 14.81327730111827 SOHLA-1 1 33496U 09002E 11047.74044989 .00000086 00000-0 22738-4 0 03381 2 33496 098.0680 158.8778 0007203 139.1747 221.0009 14.69556152110792 TISAT-1 1 36799U 10035E 11048.70893926 -.00000026 00000-0 38510-5 0 5932 2 36799 098.1163 115.7242 0014358 305.8498 054.1312 14.80317339 32633 STUDSAT 1 36801U 10035G 11048.84410918 -.00001094 00000-0 -13726-3 0 1356 2 36801 098.1166 115.7148 0012886 292.4187 067.5661 14.80009882 32642 RAX 1 37223U 0 11047.27696737 .00000210 00000-0 37394-4 0 00845 2 37223 071.9744 305.5778 0020243 156.1195 204.0952 14.77236729013032 OOREOS 1 37224U 10062C 11043.43618410 .00000219 00000-0 38954-4 0 00810 2 37224 071.9758 314.1598 0019424 162.0076 198.1778 14.76892599012453 NANOSALD 1 37225U 0 11047.29787394 .00047928 00000-0 64979-2 0 00393 2 37225 071.9711 305.6405 0021383 112.9664 247.4297 14.78488639004137 FAST1-2 1 37227U 0 11048.41045685 .00000321 00000-0 54115-4 0 00816 2 37227 071.9740 303.3320 0016667 148.9109 211.3043 14.76393123013189 NOAA-10 1 16969U 86073A 11047.64704614 -.00000053 00000-0 -37167-5 0 03982 2 16969 098.6332 079.0010 0011726 215.1868 144.8530 14.27443519270452 NOAA-11 1 19531U 88089A 11047.77212262 -.00000043 00000-0 15372-6 0 04058 2 19531 098.7551 137.5084 0011162 168.2085 191.9355 14.14903748155729 NOAA-12 1 21263U 91032A 11047.72685205 .00000093 00000-0 57904-4 0 08986 2 21263 098.7577 065.7491 0012630 172.9500 187.1853 14.25683757027243 MET-3/5 1 21655U 91056A 11048.63532369 .00000051 00000-0 10000-3 0 408 2 21655 082.5601 135.2456 0014859 095.9594 264.3158 13.17027271937983 MET-2/21 1 22782U 93055A 11047.56610835 .00000048 00000-0 29563-4 0 00217 2 22782 082.5450 058.5784 0024029 077.9429 282.4420 13.83652329881875 OKEAN-4 1 23317U 94066A 11047.72713108 .00000517 00000-0 60506-4 0 04767 2 23317 082.5421 125.6139 0022919 152.0075 208.2406 14.82941217882694 NOAA-14 1 23455U 94089A 11047.72644075 -.00000014 00000-0 15791-4 0 03837 2 23455 098.8566 131.5392 0008625 260.9115 099.1069 14.13805660832058 NOAA-15 1 25338U 98030A 11047.87818910 -.00000101 00000-0 -24484-4 0 07118 2 25338 098.6440 035.7341 0011553 082.6402 277.6052 14.24882817663597 RESURS 1 25394U 98043A 11048.67625942 -.00000179 00000-0 -60017-4 0 7267 2 25394 098.2982 058.2845 0000790 183.6317 176.4851 14.24222975655297 FENGYUN1 1 25730U 99025A 11047.84099155 .00000256 00000-0 17438-3 0 2594 2 25730 098.8061 011.7389 0022233 291.9453 067.9371 14.08496035606123 OKEAN-0 1 25860U 99039A 11047.51221489 .00000162 00000-0 32232-4 0 02332 2 25860 097.8679 017.3908 0001730 054.7332 305.4028 14.73710615622885 NOAA-16 1 26536U 00055A 11047.87835017 -.00000154 00000-0 -58267-4 0 01923 2 26536 099.1536 075.9085 0010765 014.9083 345.2396 14.12596570536371 NOAA-17 1 27453U 02032A 11047.90478192 -.00000018 00000-0 10087-4 0 01892 2 27453 098.3974 093.0495 0012409 138.5725 221.6379 14.24236111449530 NOAA-18 1 28654U 05018A 11047.87422261 -.00000134 00000-0 -49013-4 0 06745 2 28654 098.9818 358.8164 0015241 083.5506 276.7408 14.11435552295950 NOAA-19 1 33591U 09005A 11047.91573978 -.00000063 00000-0 -10724-4 0 08670 2 33591 098.8149 350.1612 0013729 320.1367 039.8811 14.11129118104424 HUBBLE 1 20580U 90037B 11047.25959679 .00000739 00000-0 43533-4 0 7145 2 20580 028.4706 086.2685 0003142 268.8718 091.1605 15.01163754941468 ISS 1 25544U 98067A 11048.87834359 .00023351 00000-0 17527-3 0 8450 2 25544 051.6444 052.7476 0004651 326.8986 096.5145 15.72476713702120 CO-58 1 28895U 05043F 11047.65615684 .00000252 00000-0 61818-4 0 08040 2 28895 097.9870 288.5849 0016880 236.8685 123.0926 14.60008153282653 FALCON 1 30776U 07006E 11048.85132557 .00001472 00000-0 10704-3 0 244 2 30776 035.4338 352.3209 0000355 210.7696 149.3017 15.04123586217065 MAST 1 31126U 07012K 11047.58295247 .00000158 00000-0 45917-4 0 00870 2 31126 097.9085 081.5554 0094265 185.5863 174.4285 14.53673993203560 CAPE1 1 31130U 07012P 11047.73124128 .00000256 00000-0 69447-4 0 01077 2 31130 097.9144 078.6530 0102027 194.7618 165.0591 14.52290982203151 COMPASS 1 32787U 08021E 11048.72868898 .00000491 00000-0 68268-4 0 9121 2 32787 097.8620 114.7154 0015091 202.6807 157.3740 14.82143203151861 AAUSAT2 1 32788U 08021F 11048.63905960 .00000696 00000-0 93504-4 0 9010 2 32788 097.8624 114.8156 0015050 203.4186 156.6295 14.82308357151863 DO-64 1 32789U 08021G 11047.73495593 .00001072 00000-0 13956-3 0 09186 2 32789 097.8714 114.7225 0014938 204.7584 155.2909 14.82598605151730 CO-66 1 32791U 08021J 11048.72229905 .00000212 00000-0 33412-4 0 9029 2 32791 097.8641 114.6830 0015499 201.4495 158.6071 14.81883220151816 RS-30 1 32953U 08025A 11048.62131809 .00000010 00000-0 00000 0 0 4794 2 32953 082.4964 237.0515 0018244 288.8403 071.0697 12.43010395124232 TACSAT-3 1 35001U 09028A 11048.82534842 .00012268 00000-0 25698-3 0 5064 2 35001 040.4502 175.4103 0022862 039.0339 321.2122 15.44889847 98596 PHARMSAT 1 35002U 09028B 11047.75043680 .00010275 00000-0 21468-3 0 4719 2 35002 040.4683 179.3813 0024161 036.2681 323.9772 15.45061835 98456 HAWKSAT1 1 35003U 09028C 11047.68416744 .00031748 00000-0 50658-3 0 05168 2 35003 040.4510 163.7828 0023435 060.0958 300.2190 15.52179166098620 CP6 1 35004U 09028D 11048.66802771 .00037647 00000-0 54886-3 0 5180 2 35004 040.4532 153.5236 0022482 075.0744 285.2554 15.54622349 98810 AEROCUB3 1 35005U 09028E 11006.09222617 .14049365 73043-5 82692-3 0 6103 2 35005 040.4461 021.7975 0025578 084.1677 280.7191 16.39196088 92544 METEOR-M 1 35865U 09049A 11048.73109671 .00000176 00000-0 10000-3 0 1100 2 35865 098.7220 105.3234 0003088 032.7887 327.3463 14.21831995 73617 RS-38 1 35869U 09049E 11048.81583271 .00000177 00000-0 10000-3 0 1229 2 35869 098.7214 105.4464 0004878 025.3490 334.7910 14.22000164 73634 /EX